TimeEST,TemperatureF,Dew PointF,Humidity,Sea Level PressureIn,VisibilityMPH,Wind Direction,Wind SpeedMPH,Gust SpeedMPH,PrecipitationIn,Events,Conditions,WindDirDegrees,DateUTC
12:54 AM,12.9,-0.0,56,30.28,10.0,WNW,15.0,19.6,N/A,,Clear,300,2013-01-22 05:54:00
1:54 AM,12.0,-0.0,59,30.30,10.0,WNW,8.1,-,N/A,,Clear,290,2013-01-22 06:54:00
2:54 AM,10.9,-0.0,61,30.31,10.0,WNW,5.8,-,N/A,,Clear,290,2013-01-22 07:54:00
3:54 AM,10.0,1.0,67,30.32,10.0,West,5.8,-,N/A,,Clear,280,2013-01-22 08:54:00
4:54 AM,10.9,-0.0,61,30.32,10.0,WNW,6.9,-,N/A,,Clear,290,2013-01-22 09:54:00
5:54 AM,10.9,-0.9,59,30.33,10.0,WNW,12.7,-,N/A,,Clear,300,2013-01-22 10:54:00
6:54 AM,10.9,-0.9,59,30.36,10.0,WNW,6.9,-,N/A,,Clear,290,2013-01-22 11:54:00
7:54 AM,10.9,-0.0,61,30.38,10.0,WNW,6.9,-,N/A,,Clear,290,2013-01-22 12:54:00
8:54 AM,10.9,-2.9,54,30.41,10.0,WNW,8.1,-,N/A,,Clear,300,2013-01-22 13:54:00
9:54 AM,12.0,-4.0,49,30.42,10.0,NW,9.2,-,N/A,,Clear,310,2013-01-22 14:54:00
10:54 AM,15.1,-4.0,43,30.44,10.0,West,10.4,18.4,N/A,,Clear,260,2013-01-22 15:54:00
11:54 AM,16.0,-2.9,43,30.43,10.0,West,10.4,-,N/A,,Clear,280,2013-01-22 16:54:00
12:54 PM,17.1,-4.0,39,30.40,10.0,West,10.4,18.4,N/A,,Clear,270,2013-01-22 17:54:00
1:54 PM,19.0,-4.0,36,30.37,10.0,West,10.4,18.4,N/A,,Clear,270,2013-01-22 18:54:00
2:54 PM,19.9,-4.0,35,30.36,10.0,Variable,4.6,16.1,N/A,,Clear,0,2013-01-22 19:54:00
3:54 PM,19.0,-2.9,38,30.38,10.0,West,11.5,-,N/A,,Clear,260,2013-01-22 20:54:00
4:54 PM,19.0,-2.9,38,30.38,10.0,WNW,9.2,-,N/A,,Clear,290,2013-01-22 21:54:00
5:54 PM,17.1,-2.0,43,30.36,10.0,WNW,3.5,-,N/A,,Mostly Cloudy,290,2013-01-22 22:54:00
6:54 PM,15.1,-0.0,51,30.38,10.0,West,3.5,-,N/A,,Clear,280,2013-01-22 23:54:00
7:54 PM,12.9,1.0,59,30.38,10.0,West,4.6,-,N/A,,Clear,260,2013-01-23 00:54:00
8:54 PM,14.0,-0.0,54,30.38,10.0,West,4.6,-,N/A,,Clear,270,2013-01-23 01:54:00
9:54 PM,15.1,1.9,56,30.38,10.0,WNW,5.8,-,N/A,,Overcast,290,2013-01-23 02:54:00
10:54 PM,16.0,1.0,52,30.38,10.0,WNW,5.8,-,N/A,,Overcast,290,2013-01-23 03:54:00
11:54 PM,16.0,1.9,54,30.39,10.0,WNW,5.8,-,N/A,,Overcast,300,2013-01-23 04:54:00